TimeEST,TemperatureF,Dew PointF,Humidity,Sea Level PressureIn,VisibilityMPH,Wind Direction,Wind SpeedMPH,Gust SpeedMPH,PrecipitationIn,Events,Conditions,WindDirDegrees,DateUTC
12:15 AM,1.4,-3.3,81,30.23,10.0,NNE,6.9,-,N/A,,Clear,20,2013-01-24 05:15:00
12:36 AM,0.5,-4.4,80,30.23,10.0,NNE,10.4,-,N/A,,Clear,20,2013-01-24 05:36:00
12:55 AM,-0.4,-5.4,79,30.25,10.0,NNE,5.8,-,N/A,,Clear,20,2013-01-24 05:55:00
1:16 AM,-1.3,-6.7,78,30.27,10.0,North,6.9,-,N/A,,Clear,10,2013-01-24 06:16:00
1:35 AM,-2.2,-7.8,77,30.28,10.0,North,9.2,-,N/A,,Clear,10,2013-01-24 06:35:00
1:55 AM,-2.7,-8.5,76,30.29,10.0,North,9.2,-,N/A,,Clear,10,2013-01-24 06:55:00
2:16 AM,-3.6,-9.4,76,30.32,10.0,NNE,6.9,-,N/A,,Clear,20,2013-01-24 07:16:00
2:35 AM,-4.2,-10.3,75,30.33,10.0,North,6.9,-,N/A,,Clear,10,2013-01-24 07:35:00
2:56 AM,-4.9,-11.2,74,30.35,10.0,NNE,4.6,-,N/A,,Clear,20,2013-01-24 07:56:00
3:16 AM,-5.6,-11.6,75,30.37,10.0,North,8.1,-,N/A,,Clear,10,2013-01-24 08:16:00
3:35 AM,-5.8,-12.3,74,30.38,10.0,North,6.9,-,N/A,,Clear,10,2013-01-24 08:35:00
3:56 AM,-6.9,-13.0,75,30.39,10.0,NNE,5.8,-,N/A,,Clear,20,2013-01-24 08:56:00
4:15 AM,-7.2,-13.5,74,30.41,10.0,North,8.1,-,N/A,,Clear,10,2013-01-24 09:15:00
4:36 AM,-7.2,-13.9,73,30.43,10.0,North,3.5,-,N/A,,Clear,360,2013-01-24 09:36:00
4:56 AM,-8.7,-14.6,75,30.44,10.0,North,5.8,-,N/A,,Clear,360,2013-01-24 09:56:00
5:15 AM,-8.1,-14.6,73,30.44,10.0,NNE,5.8,-,N/A,,Clear,20,2013-01-24 10:15:00
5:36 AM,-8.5,-14.8,74,30.45,10.0,North,4.6,-,N/A,,Clear,10,2013-01-24 10:36:00
5:56 AM,-9.4,-15.2,76,30.47,10.0,North,4.6,-,N/A,,Clear,360,2013-01-24 10:56:00
6:15 AM,-10.7,-16.4,76,30.47,10.0,Calm,Calm,-,N/A,,Clear,0,2013-01-24 11:15:00
6:36 AM,-11.9,-16.6,80,30.48,10.0,Calm,Calm,-,N/A,,Clear,0,2013-01-24 11:36:00
6:56 AM,-12.1,-16.4,81,30.50,10.0,Calm,Calm,-,N/A,,Clear,0,2013-01-24 11:56:00
7:15 AM,-11.7,-16.6,79,30.51,10.0,Calm,Calm,-,N/A,,Clear,0,2013-01-24 12:15:00
7:36 AM,-12.5,-17.7,78,30.52,10.0,Calm,Calm,-,N/A,,Clear,0,2013-01-24 12:36:00
7:55 AM,-11.7,-17.5,76,30.53,10.0,Calm,Calm,-,N/A,,Clear,0,2013-01-24 12:55:00
8:16 AM,-14.1,-19.1,78,30.53,10.0,Calm,Calm,-,N/A,,Clear,0,2013-01-24 13:16:00
8:36 AM,-13.9,-18.6,80,30.53,10.0,Calm,Calm,-,N/A,,Clear,0,2013-01-24 13:36:00
8:55 AM,-11.2,-17.0,76,30.53,10.0,North,3.5,-,N/A,,Clear,350,2013-01-24 13:55:00
9:16 AM,-9.4,-16.1,73,30.55,10.0,Calm,Calm,-,N/A,,Clear,0,2013-01-24 14:16:00
9:35 AM,-9.6,-17.0,70,30.55,10.0,North,4.6,-,N/A,,Clear,350,2013-01-24 14:35:00
9:55 AM,-8.9,-15.9,71,30.56,10.0,North,4.6,-,N/A,,Clear,350,2013-01-24 14:55:00
10:16 AM,-8.0,-15.7,69,30.57,10.0,North,4.6,-,N/A,,Clear,350,2013-01-24 15:16:00
10:35 AM,-7.1,-15.3,67,30.58,10.0,NW,4.6,-,N/A,,Clear,320,2013-01-24 15:35:00
10:56 AM,-5.8,-15.5,63,30.58,10.0,NNW,3.5,-,N/A,,Clear,340,2013-01-24 15:56:00
11:16 AM,-4.5,-13.9,64,30.58,10.0,NW,3.5,-,N/A,,Clear,310,2013-01-24 16:16:00
11:35 AM,-4.5,-13.9,64,30.58,10.0,North,3.5,-,N/A,,Clear,350,2013-01-24 16:35:00
11:56 AM,-2.6,-13.4,60,30.57,10.0,NNW,3.5,-,N/A,,Clear,330,2013-01-24 16:56:00
12:16 PM,-2.6,-13.2,61,30.56,10.0,Calm,Calm,-,N/A,,Clear,0,2013-01-24 17:16:00
12:35 PM,-1.3,-11.6,62,30.55,10.0,Calm,Calm,-,N/A,,Clear,0,2013-01-24 17:35:00
12:56 PM,-0.2,-10.8,61,30.55,10.0,Calm,Calm,-,N/A,,Clear,0,2013-01-24 17:56:00
1:16 PM,0.5,-10.3,60,30.55,10.0,WNW,3.5,-,N/A,,Clear,300,2013-01-24 18:16:00
1:35 PM,1.6,-8.9,62,30.54,10.0,Calm,Calm,-,N/A,,Clear,0,2013-01-24 18:35:00
1:56 PM,2.1,-8.5,61,30.54,10.0,West,3.5,-,N/A,,Clear,260,2013-01-24 18:56:00
2:15 PM,2.3,-8.5,61,30.53,10.0,West,4.6,-,N/A,,Clear,280,2013-01-24 19:15:00
2:36 PM,3.2,-6.7,63,30.53,10.0,NW,5.8,-,N/A,,Clear,310,2013-01-24 19:36:00
2:56 PM,4.1,-5.1,66,30.54,10.0,West,5.8,-,N/A,,Clear,280,2013-01-24 19:56:00
3:15 PM,4.6,-4.0,67,30.54,10.0,WNW,3.5,-,N/A,,Clear,300,2013-01-24 20:15:00
3:36 PM,4.5,-4.0,68,30.53,10.0,NW,5.8,-,N/A,,Clear,310,2013-01-24 20:36:00
3:55 PM,4.6,-3.6,69,30.53,10.0,WNW,4.6,-,N/A,,Clear,300,2013-01-24 20:55:00
4:16 PM,5.2,-3.1,69,30.53,10.0,WNW,3.5,-,N/A,,Clear,300,2013-01-24 21:16:00
4:36 PM,5.0,-3.1,69,30.54,10.0,WNW,3.5,-,N/A,,Clear,300,2013-01-24 21:36:00
4:55 PM,4.6,-2.9,71,30.53,10.0,Calm,Calm,-,N/A,,Clear,0,2013-01-24 21:55:00
5:16 PM,4.1,-3.1,72,30.53,10.0,Calm,Calm,-,N/A,,Clear,0,2013-01-24 22:16:00
5:36 PM,2.5,-3.1,78,30.53,10.0,Calm,Calm,-,N/A,,Clear,0,2013-01-24 22:36:00
5:55 PM,-1.5,-5.3,84,30.52,10.0,Calm,Calm,-,N/A,,Clear,0,2013-01-24 22:55:00
6:16 PM,-4.2,-7.4,86,30.51,10.0,Calm,Calm,-,N/A,,Clear,0,2013-01-24 23:16:00
6:35 PM,-4.7,-7.8,87,30.51,10.0,Calm,Calm,-,N/A,,Clear,0,2013-01-24 23:35:00
6:55 PM,-4.9,-7.4,89,30.51,10.0,Calm,Calm,-,N/A,,Clear,0,2013-01-24 23:55:00
7:16 PM,-7.4,-10.5,86,30.51,10.0,Calm,Calm,-,N/A,,Clear,0,2013-01-25 00:16:00
7:35 PM,-7.8,-11.4,84,30.51,10.0,Calm,Calm,-,N/A,,Clear,0,2013-01-25 00:35:00
7:56 PM,-9.6,-13.0,85,30.50,10.0,Calm,Calm,-,N/A,,Clear,0,2013-01-25 00:56:00
8:16 PM,-9.6,-13.4,83,30.49,10.0,Calm,Calm,-,N/A,,Clear,0,2013-01-25 01:16:00
8:35 PM,-9.6,-13.4,83,30.49,10.0,Calm,Calm,-,N/A,,Clear,0,2013-01-25 01:35:00
8:56 PM,-10.7,-14.8,82,30.48,10.0,Calm,Calm,-,N/A,,Clear,0,2013-01-25 01:56:00
9:16 PM,-11.2,-15.0,83,30.47,10.0,Calm,Calm,-,N/A,,Clear,0,2013-01-25 02:16:00
9:35 PM,-9.8,-13.7,83,30.46,10.0,Calm,Calm,-,N/A,,Clear,0,2013-01-25 02:35:00
9:56 PM,-9.0,-13.0,83,30.45,10.0,Calm,Calm,-,N/A,,Clear,0,2013-01-25 02:56:00
10:16 PM,-7.4,-11.4,83,30.44,10.0,Calm,Calm,-,N/A,,Clear,0,2013-01-25 03:16:00
10:35 PM,-5.3,-8.5,86,30.43,10.0,Calm,Calm,-,N/A,,Clear,0,2013-01-25 03:35:00
10:56 PM,-6.5,-10.3,84,30.43,10.0,Calm,Calm,-,N/A,,Clear,0,2013-01-25 03:56:00
11:15 PM,-5.4,-9.0,84,30.43,10.0,Calm,Calm,-,N/A,,Clear,0,2013-01-25 04:15:00
11:36 PM,-4.9,-8.3,85,30.43,10.0,Calm,Calm,-,N/A,,Clear,0,2013-01-25 04:36:00
11:55 PM,-4.4,-7.8,85,30.43,10.0,Calm,Calm,-,N/A,,Clear,0,2013-01-25 04:55:00